owner,sensor,date,latitude,longitude,air_temperature,qcFlag 
COMPS,ioos:station:USF.COMPS:C10:1,2015-01-01T00:05:00Z,27.1690,-82.9260,19.32,1111122 
COMPS,ioos:station:USF.COMPS:C10:1,2015-01-01T00:35:00Z,27.1690,-82.9260,19.06,1111122 
COMPS,ioos:station:USF.COMPS:C10:1,2015-01-01T01:05:00Z,27.1690,-82.9260,18.82,1111122 
COMPS,ioos:station:USF.COMPS:C10:1,2015-01-01T01:35:00Z,27.1690,-82.9260,18.71,1111122 
COMPS,ioos:station:USF.COMPS:C10:1,2015-01-01T02:05:00Z,27.1690,-82.9260,18.67,1111122 
COMPS,ioos:station:USF.COMPS:C10:1,2015-01-01T02:35:00Z,27.1690,-82.9260,18.6,1111122 
COMPS,ioos:station:USF.COMPS:C10:1,2015-01-01T03:05:00Z,27.1690,-82.9260,18.58,1111122 
COMPS,ioos:station:USF.COMPS:C10:1,2015-01-01T03:35:00Z,27.1690,-82.9260,18.46,1111122 
COMPS,ioos:station:USF.COMPS:C10:1,2015-01-01T04:05:00Z,27.1690,-82.9260,18.46,1111122 
COMPS,ioos:station:USF.COMPS:C10:1,2015-01-01T04:35:00Z,27.1690,-82.9260,18.57,1111122 
COMPS,ioos:station:USF.COMPS:C10:1,2015-01-01T05:05:00Z,27.1690,-82.9260,18.57,1111122 
COMPS,ioos:station:USF.COMPS:C10:1,2015-01-01T05:35:00Z,27.1690,-82.9260,18.43,1111122 
COMPS,ioos:station:USF.COMPS:C10:1,2015-01-01T06:05:00Z,27.1690,-82.9260,18.04,1111122 
COMPS,ioos:station:USF.COMPS:C10:1,2015-01-01T06:35:00Z,27.1690,-82.9260,17.91,1111122 
COMPS,ioos:station:USF.COMPS:C10:1,2015-01-01T07:05:00Z,27.1690,-82.9260,17.81,1111122 
COMPS,ioos:station:USF.COMPS:C10:1,2015-01-01T07:35:00Z,27.1690,-82.9260,17.67,1111122 
COMPS,ioos:station:USF.COMPS:C10:1,2015-01-01T08:05:00Z,27.1690,-82.9260,17.43,1111122 
COMPS,ioos:station:USF.COMPS:C10:1,2015-01-01T08:35:00Z,27.1690,-82.9260,17.37,1111122 
COMPS,ioos:station:USF.COMPS:C10:1,2015-01-01T10:05:00Z,27.1690,-82.9260,17.61,1111122 
COMPS,ioos:station:USF.COMPS:C10:1,2015-01-01T10:35:00Z,27.1690,-82.9260,17.74,1111122 
COMPS,ioos:station:USF.COMPS:C10:1,2015-01-01T11:05:00Z,27.1690,-82.9260,17.62,1111122 
COMPS,ioos:station:USF.COMPS:C10:1,2015-01-01T11:35:00Z,27.1690,-82.9260,17.55,1111122 
COMPS,ioos:station:USF.COMPS:C10:1,2015-01-01T12:05:00Z,27.1690,-82.9260,17.5,1111122 
COMPS,ioos:station:USF.COMPS:C10:1,2015-01-01T12:35:00Z,27.1690,-82.9260,17.66,1111122 
COMPS,ioos:station:USF.COMPS:C10:1,2015-01-01T13:05:00Z,27.1690,-82.9260,17.69,1111122 
COMPS,ioos:station:USF.COMPS:C10:1,2015-01-01T13:35:00Z,27.1690,-82.9260,17.74,1111122 
COMPS,ioos:station:USF.COMPS:C10:1,2015-01-01T14:05:00Z,27.1690,-82.9260,17.84,1111122 
COMPS,ioos:station:USF.COMPS:C10:1,2015-01-01T14:35:00Z,27.1690,-82.9260,17.71,1111122 
COMPS,ioos:station:USF.COMPS:C10:1,2015-01-01T15:05:00Z,27.1690,-82.9260,18.0,1111122 
COMPS,ioos:station:USF.COMPS:C10:1,2015-01-01T15:35:00Z,27.1690,-82.9260,18.09,1111122 
COMPS,ioos:station:USF.COMPS:C10:1,2015-01-01T16:05:00Z,27.1690,-82.9260,17.88,1111122 
COMPS,ioos:station:USF.COMPS:C10:1,2015-01-01T16:35:00Z,27.1690,-82.9260,17.76,1111122 
COMPS,ioos:station:USF.COMPS:C10:1,2015-01-01T17:05:00Z,27.1690,-82.9260,17.74,1111122 
COMPS,ioos:station:USF.COMPS:C10:1,2015-01-01T17:35:00Z,27.1690,-82.9260,17.61,1111122 
COMPS,ioos:station:USF.COMPS:C10:1,2015-01-01T18:05:00Z,27.1690,-82.9260,17.72,1111122 
COMPS,ioos:station:USF.COMPS:C10:1,2015-01-01T18:35:00Z,27.1690,-82.9260,17.88,1111122 
COMPS,ioos:station:USF.COMPS:C10:1,2015-01-01T19:05:00Z,27.1690,-82.9260,17.99,1111122 
COMPS,ioos:station:USF.COMPS:C10:1,2015-01-01T19:35:00Z,27.1690,-82.9260,18.21,1111122 
COMPS,ioos:station:USF.COMPS:C10:1,2015-01-01T21:05:00Z,27.1690,-82.9260,18.98,1111122 
COMPS,ioos:station:USF.COMPS:C10:1,2015-01-01T21:35:00Z,27.1690,-82.9260,19.22,1111122 
COMPS,ioos:station:USF.COMPS:C10:1,2015-01-01T22:05:00Z,27.1690,-82.9260,19.42,1111122 
COMPS,ioos:station:USF.COMPS:C10:1,2015-01-01T22:35:00Z,27.1690,-82.9260,19.68,1111122 
COMPS,ioos:station:USF.COMPS:C10:1,2015-01-01T23:05:00Z,27.1690,-82.9260,19.8,1111122 
COMPS,ioos:station:USF.COMPS:C10:1,2015-01-01T23:35:00Z,27.1690,-82.9260,19.8,1111122 
COMPS,ioos:station:USF.COMPS:C10:1,2015-01-02T00:05:00Z,27.1690,-82.9260,19.89,1111122 
COMPS,ioos:station:USF.COMPS:C10:1,2015-01-02T00:35:00Z,27.1690,-82.9260,19.99,1111122 
COMPS,ioos:station:USF.COMPS:C10:1,2015-01-02T01:05:00Z,27.1690,-82.9260,20.06,1111122 
COMPS,ioos:station:USF.COMPS:C10:1,2015-01-02T01:35:00Z,27.1690,-82.9260,20.07,1111122 
COMPS,ioos:station:USF.COMPS:C10:1,2015-01-02T03:05:00Z,27.1690,-82.9260,20.11,1111122 
COMPS,ioos:station:USF.COMPS:C10:1,2015-01-02T03:35:00Z,27.1690,-82.9260,20.0,1111122 
COMPS,ioos:station:USF.COMPS:C10:1,2015-01-02T05:05:00Z,27.1690,-82.9260,19.75,1111122 
COMPS,ioos:station:USF.COMPS:C10:1,2015-01-02T05:35:00Z,27.1690,-82.9260,19.87,1111122 
COMPS,ioos:station:USF.COMPS:C10:1,2015-01-02T06:05:00Z,27.1690,-82.9260,19.96,1111122 
COMPS,ioos:station:USF.COMPS:C10:1,2015-01-02T06:35:00Z,27.1690,-82.9260,19.95,1111122 
COMPS,ioos:station:USF.COMPS:C10:1,2015-01-02T07:05:00Z,27.1690,-82.9260,19.86,1111122 
COMPS,ioos:station:USF.COMPS:C10:1,2015-01-02T07:35:00Z,27.1690,-82.9260,19.82,1111122 
COMPS,ioos:station:USF.COMPS:C10:1,2015-01-02T08:05:00Z,27.1690,-82.9260,19.68,1111122 
COMPS,ioos:station:USF.COMPS:C10:1,2015-01-02T08:35:00Z,27.1690,-82.9260,19.2,1111122 
COMPS,ioos:station:USF.COMPS:C10:1,2015-01-02T09:05:00Z,27.1690,-82.9260,19.14,1111122 
COMPS,ioos:station:USF.COMPS:C10:1,2015-01-02T09:35:00Z,27.1690,-82.9260,19.09,1111122 
COMPS,ioos:station:USF.COMPS:C10:1,2015-01-02T10:05:00Z,27.1690,-82.9260,19.05,1111122 
COMPS,ioos:station:USF.COMPS:C10:1,2015-01-02T10:35:00Z,27.1690,-82.9260,19.05,1111122 
COMPS,ioos:station:USF.COMPS:C10:1,2015-01-02T11:05:00Z,27.1690,-82.9260,19.1,1111122 
COMPS,ioos:station:USF.COMPS:C10:1,2015-01-02T11:35:00Z,27.1690,-82.9260,19.0,1111122 
COMPS,ioos:station:USF.COMPS:C10:1,2015-01-02T12:05:00Z,27.1690,-82.9260,18.96,1111122 
COMPS,ioos:station:USF.COMPS:C10:1,2015-01-02T12:35:00Z,27.1690,-82.9260,19.11,1111122 
COMPS,ioos:station:USF.COMPS:C10:1,2015-01-02T13:05:00Z,27.1690,-82.9260,19.21,1111122 
COMPS,ioos:station:USF.COMPS:C10:1,2015-01-02T13:35:00Z,27.1690,-82.9260,19.19,1111122 
COMPS,ioos:station:USF.COMPS:C10:1,2015-01-02T14:05:00Z,27.1690,-82.9260,19.34,1111122 
COMPS,ioos:station:USF.COMPS:C10:1,2015-01-02T14:35:00Z,27.1690,-82.9260,19.37,1111122 
COMPS,ioos:station:USF.COMPS:C10:1,2015-01-02T15:05:00Z,27.1690,-82.9260,19.44,1111122 
COMPS,ioos:station:USF.COMPS:C10:1,2015-01-02T15:35:00Z,27.1690,-82.9260,19.36,1111122 
COMPS,ioos:station:USF.COMPS:C10:1,2015-01-02T16:05:00Z,27.1690,-82.9260,19.28,1111122 
COMPS,ioos:station:USF.COMPS:C10:1,2015-01-02T16:35:00Z,27.1690,-82.9260,19.38,1111122 
COMPS,ioos:station:USF.COMPS:C10:1,2015-01-02T17:05:00Z,27.1690,-82.9260,19.51,1111122 
COMPS,ioos:station:USF.COMPS:C10:1,2015-01-02T17:35:00Z,27.1690,-82.9260,19.69,1111122 
COMPS,ioos:station:USF.COMPS:C10:1,2015-01-02T18:05:00Z,27.1690,-82.9260,19.81,1111122 
COMPS,ioos:station:USF.COMPS:C10:1,2015-01-02T18:35:00Z,27.1690,-82.9260,20.02,1111122 
COMPS,ioos:station:USF.COMPS:C10:1,2015-01-02T19:05:00Z,27.1690,-82.9260,19.99,1111122 
COMPS,ioos:station:USF.COMPS:C10:1,2015-01-02T19:35:00Z,27.1690,-82.9260,20.34,1111122 
COMPS,ioos:station:USF.COMPS:C10:1,2015-01-02T20:05:00Z,27.1690,-82.9260,20.5,1111122 
COMPS,ioos:station:USF.COMPS:C10:1,2015-01-02T20:35:00Z,27.1690,-82.9260,20.71,1111122 
COMPS,ioos:station:USF.COMPS:C10:1,2015-01-02T21:05:00Z,27.1690,-82.9260,20.93,1111122 
COMPS,ioos:station:USF.COMPS:C10:1,2015-01-02T21:35:00Z,27.1690,-82.9260,20.91,1111122 
COMPS,ioos:station:USF.COMPS:C10:1,2015-01-02T22:05:00Z,27.1690,-82.9260,20.91,1111122 
COMPS,ioos:station:USF.COMPS:C10:1,2015-01-02T22:35:00Z,27.1690,-82.9260,20.76,1111122 
COMPS,ioos:station:USF.COMPS:C10:1,2015-01-02T23:05:00Z,27.1690,-82.9260,20.88,1111122 
COMPS,ioos:station:USF.COMPS:C10:1,2015-01-02T23:35:00Z,27.1690,-82.9260,20.93,1111122 
COMPS,ioos:station:USF.COMPS:C10:1,2015-01-03T00:05:00Z,27.1690,-82.9260,21.1,1111122 
COMPS,ioos:station:USF.COMPS:C10:1,2015-01-03T00:35:00Z,27.1690,-82.9260,21.07,1111122 
COMPS,ioos:station:USF.COMPS:C10:1,2015-01-03T01:05:00Z,27.1690,-82.9260,21.07,1111122 
COMPS,ioos:station:USF.COMPS:C10:1,2015-01-03T01:35:00Z,27.1690,-82.9260,21.28,1111122 
COMPS,ioos:station:USF.COMPS:C10:1,2015-01-03T02:05:00Z,27.1690,-82.9260,21.73,1111122 
COMPS,ioos:station:USF.COMPS:C10:1,2015-01-03T02:35:00Z,27.1690,-82.9260,21.84,1111122 
COMPS,ioos:station:USF.COMPS:C10:1,2015-01-03T03:05:00Z,27.1690,-82.9260,21.61,1111122 
COMPS,ioos:station:USF.COMPS:C10:1,2015-01-03T03:35:00Z,27.1690,-82.9260,21.49,1111122 
COMPS,ioos:station:USF.COMPS:C10:1,2015-01-03T05:05:00Z,27.1690,-82.9260,21.04,1111122 
COMPS,ioos:station:USF.COMPS:C10:1,2015-01-03T05:35:00Z,27.1690,-82.9260,21.07,1111122 
COMPS,ioos:station:USF.COMPS:C10:1,2015-01-03T06:05:00Z,27.1690,-82.9260,21.11,1111122 
COMPS,ioos:station:USF.COMPS:C10:1,2015-01-03T06:35:00Z,27.1690,-82.9260,21.0,1111122 
COMPS,ioos:station:USF.COMPS:C10:1,2015-01-03T07:05:00Z,27.1690,-82.9260,20.88,1111122 
COMPS,ioos:station:USF.COMPS:C10:1,2015-01-03T07:35:00Z,27.1690,-82.9260,20.77,1111122 
COMPS,ioos:station:USF.COMPS:C10:1,2015-01-03T08:05:00Z,27.1690,-82.9260,20.74,1111122 
COMPS,ioos:station:USF.COMPS:C10:1,2015-01-03T08:35:00Z,27.1690,-82.9260,20.76,1111122 
COMPS,ioos:station:USF.COMPS:C10:1,2015-01-03T09:05:00Z,27.1690,-82.9260,20.72,1111122 
COMPS,ioos:station:USF.COMPS:C10:1,2015-01-03T09:35:00Z,27.1690,-82.9260,20.71,1111122 
COMPS,ioos:station:USF.COMPS:C10:1,2015-01-03T10:05:00Z,27.1690,-82.9260,20.74,1111122 
COMPS,ioos:station:USF.COMPS:C10:1,2015-01-03T10:35:00Z,27.1690,-82.9260,20.74,1111122 
COMPS,ioos:station:USF.COMPS:C10:1,2015-01-03T11:05:00Z,27.1690,-82.9260,20.66,1111122 
COMPS,ioos:station:USF.COMPS:C10:1,2015-01-03T11:35:00Z,27.1690,-82.9260,20.95,1111122 
COMPS,ioos:station:USF.COMPS:C10:1,2015-01-03T12:05:00Z,27.1690,-82.9260,20.86,1111122 
COMPS,ioos:station:USF.COMPS:C10:1,2015-01-03T12:35:00Z,27.1690,-82.9260,20.85,1111122 
COMPS,ioos:station:USF.COMPS:C10:1,2015-01-03T13:05:00Z,27.1690,-82.9260,20.99,1111122 
COMPS,ioos:station:USF.COMPS:C10:1,2015-01-03T13:35:00Z,27.1690,-82.9260,21.32,1111122 
COMPS,ioos:station:USF.COMPS:C10:1,2015-01-03T14:05:00Z,27.1690,-82.9260,21.43,1111122 
COMPS,ioos:station:USF.COMPS:C10:1,2015-01-03T14:35:00Z,27.1690,-82.9260,21.36,1111122 
COMPS,ioos:station:USF.COMPS:C10:1,2015-01-03T15:05:00Z,27.1690,-82.9260,21.34,1111122 
COMPS,ioos:station:USF.COMPS:C10:1,2015-01-03T15:35:00Z,27.1690,-82.9260,21.36,1111122 
COMPS,ioos:station:USF.COMPS:C10:1,2015-01-03T16:05:00Z,27.1690,-82.9260,21.38,1111122 
COMPS,ioos:station:USF.COMPS:C10:1,2015-01-03T16:35:00Z,27.1690,-82.9260,21.5,1111122 
COMPS,ioos:station:USF.COMPS:C10:1,2015-01-03T17:05:00Z,27.1690,-82.9260,21.78,1111122 
COMPS,ioos:station:USF.COMPS:C10:1,2015-01-03T17:35:00Z,27.1690,-82.9260,21.84,1111122 
COMPS,ioos:station:USF.COMPS:C10:1,2015-01-03T18:05:00Z,27.1690,-82.9260,21.9,1111122 
COMPS,ioos:station:USF.COMPS:C10:1,2015-01-03T18:35:00Z,27.1690,-82.9260,21.94,1111122 
COMPS,ioos:station:USF.COMPS:C10:1,2015-01-03T19:05:00Z,27.1690,-82.9260,21.95,1111122 
COMPS,ioos:station:USF.COMPS:C10:1,2015-01-03T19:35:00Z,27.1690,-82.9260,22.0,1111122 
COMPS,ioos:station:USF.COMPS:C10:1,2015-01-03T20:05:00Z,27.1690,-82.9260,22.14,1111122 
COMPS,ioos:station:USF.COMPS:C10:1,2015-01-03T20:35:00Z,27.1690,-82.9260,22.06,1111122 
COMPS,ioos:station:USF.COMPS:C10:1,2015-01-03T21:05:00Z,27.1690,-82.9260,22.08,1111122 
COMPS,ioos:station:USF.COMPS:C10:1,2015-01-03T21:35:00Z,27.1690,-82.9260,22.28,1111122 
COMPS,ioos:station:USF.COMPS:C10:1,2015-01-03T22:05:00Z,27.1690,-82.9260,22.38,1111122 
COMPS,ioos:station:USF.COMPS:C10:1,2015-01-03T22:35:00Z,27.1690,-82.9260,22.1,1111122 
COMPS,ioos:station:USF.COMPS:C10:1,2015-01-03T23:05:00Z,27.1690,-82.9260,22.13,1111122 
COMPS,ioos:station:USF.COMPS:C10:1,2015-01-03T23:35:00Z,27.1690,-82.9260,22.19,1111122 
COMPS,ioos:station:USF.COMPS:C10:1,2015-01-04T00:05:00Z,27.1690,-82.9260,22.24,1111122 
COMPS,ioos:station:USF.COMPS:C10:1,2015-01-04T00:35:00Z,27.1690,-82.9260,22.16,1111122 
COMPS,ioos:station:USF.COMPS:C10:1,2015-01-04T01:05:00Z,27.1690,-82.9260,21.8,1111122 
COMPS,ioos:station:USF.COMPS:C10:1,2015-01-04T01:35:00Z,27.1690,-82.9260,21.95,1111122 
COMPS,ioos:station:USF.COMPS:C10:1,2015-01-04T02:05:00Z,27.1690,-82.9260,21.8,1111122 
COMPS,ioos:station:USF.COMPS:C10:1,2015-01-04T02:35:00Z,27.1690,-82.9260,21.8,1111122 
COMPS,ioos:station:USF.COMPS:C10:1,2015-01-04T03:05:00Z,27.1690,-82.9260,21.64,1111122 
COMPS,ioos:station:USF.COMPS:C10:1,2015-01-04T03:35:00Z,27.1690,-82.9260,21.98,1111122 
COMPS,ioos:station:USF.COMPS:C10:1,2015-01-04T05:05:00Z,27.1690,-82.9260,21.28,1111122 
COMPS,ioos:station:USF.COMPS:C10:1,2015-01-04T05:35:00Z,27.1690,-82.9260,21.14,1111122 
COMPS,ioos:station:USF.COMPS:C10:1,2015-01-04T06:05:00Z,27.1690,-82.9260,21.27,1111122 
COMPS,ioos:station:USF.COMPS:C10:1,2015-01-04T06:35:00Z,27.1690,-82.9260,21.2,1111122 
COMPS,ioos:station:USF.COMPS:C10:1,2015-01-04T07:05:00Z,27.1690,-82.9260,21.22,1111122 
COMPS,ioos:station:USF.COMPS:C10:1,2015-01-04T07:35:00Z,27.1690,-82.9260,21.22,1111122 
COMPS,ioos:station:USF.COMPS:C10:1,2015-01-04T08:05:00Z,27.1690,-82.9260,21.16,1111122 
COMPS,ioos:station:USF.COMPS:C10:1,2015-01-04T08:35:00Z,27.1690,-82.9260,21.15,1111122 
COMPS,ioos:station:USF.COMPS:C10:1,2015-01-04T09:05:00Z,27.1690,-82.9260,21.03,1111122 
COMPS,ioos:station:USF.COMPS:C10:1,2015-01-04T09:35:00Z,27.1690,-82.9260,21.02,1111122 
COMPS,ioos:station:USF.COMPS:C10:1,2015-01-04T10:05:00Z,27.1690,-82.9260,21.11,1111122 
COMPS,ioos:station:USF.COMPS:C10:1,2015-01-04T10:35:00Z,27.1690,-82.9260,21.2,1111122 
COMPS,ioos:station:USF.COMPS:C10:1,2015-01-04T11:05:00Z,27.1690,-82.9260,21.15,1111122 
COMPS,ioos:station:USF.COMPS:C10:1,2015-01-04T11:35:00Z,27.1690,-82.9260,21.12,1111122 
COMPS,ioos:station:USF.COMPS:C10:1,2015-01-04T12:05:00Z,27.1690,-82.9260,21.09,1111122 
COMPS,ioos:station:USF.COMPS:C10:1,2015-01-04T12:35:00Z,27.1690,-82.9260,21.09,1111122 
COMPS,ioos:station:USF.COMPS:C10:1,2015-01-04T13:05:00Z,27.1690,-82.9260,21.25,1111122 
COMPS,ioos:station:USF.COMPS:C10:1,2015-01-04T13:35:00Z,27.1690,-82.9260,21.45,1111122 
COMPS,ioos:station:USF.COMPS:C10:1,2015-01-04T14:05:00Z,27.1690,-82.9260,21.64,1111122 
COMPS,ioos:station:USF.COMPS:C10:1,2015-01-04T14:35:00Z,27.1690,-82.9260,21.7,1111122 
COMPS,ioos:station:USF.COMPS:C10:1,2015-01-04T15:05:00Z,27.1690,-82.9260,21.69,1111122 
COMPS,ioos:station:USF.COMPS:C10:1,2015-01-04T15:35:00Z,27.1690,-82.9260,21.71,1111122 
COMPS,ioos:station:USF.COMPS:C10:1,2015-01-04T16:05:00Z,27.1690,-82.9260,21.73,1111122 
COMPS,ioos:station:USF.COMPS:C10:1,2015-01-04T16:35:00Z,27.1690,-82.9260,21.76,1111122 
COMPS,ioos:station:USF.COMPS:C10:1,2015-01-04T17:05:00Z,27.1690,-82.9260,21.76,1111122 
COMPS,ioos:station:USF.COMPS:C10:1,2015-01-04T17:35:00Z,27.1690,-82.9260,21.7,1111122 
COMPS,ioos:station:USF.COMPS:C10:1,2015-01-04T18:05:00Z,27.1690,-82.9260,21.7,1111122 
COMPS,ioos:station:USF.COMPS:C10:1,2015-01-04T18:35:00Z,27.1690,-82.9260,21.78,1111122 
COMPS,ioos:station:USF.COMPS:C10:1,2015-01-04T19:05:00Z,27.1690,-82.9260,21.84,1111122 
COMPS,ioos:station:USF.COMPS:C10:1,2015-01-04T19:35:00Z,27.1690,-82.9260,21.83,1111122 
COMPS,ioos:station:USF.COMPS:C10:1,2015-01-04T20:05:00Z,27.1690,-82.9260,21.99,1111122 
COMPS,ioos:station:USF.COMPS:C10:1,2015-01-04T20:35:00Z,27.1690,-82.9260,22.19,1111122 
COMPS,ioos:station:USF.COMPS:C10:1,2015-01-04T21:05:00Z,27.1690,-82.9260,22.33,1111122 
COMPS,ioos:station:USF.COMPS:C10:1,2015-01-04T21:35:00Z,27.1690,-82.9260,22.2,1111122 
COMPS,ioos:station:USF.COMPS:C10:1,2015-01-04T22:05:00Z,27.1690,-82.9260,22.27,1111122 
COMPS,ioos:station:USF.COMPS:C10:1,2015-01-04T22:35:00Z,27.1690,-82.9260,21.88,1111122 
COMPS,ioos:station:USF.COMPS:C10:1,2015-01-04T23:05:00Z,27.1690,-82.9260,21.28,1111122 
COMPS,ioos:station:USF.COMPS:C10:1,2015-01-04T23:35:00Z,27.1690,-82.9260,21.3,1111122 
COMPS,ioos:station:USF.COMPS:C10:1,2015-01-05T00:05:00Z,27.1690,-82.9260,21.24,1111122 
COMPS,ioos:station:USF.COMPS:C10:1,2015-01-05T00:35:00Z,27.1690,-82.9260,21.26,1111122 
COMPS,ioos:station:USF.COMPS:C10:1,2015-01-05T01:05:00Z,27.1690,-82.9260,21.13,1111122 
COMPS,ioos:station:USF.COMPS:C10:1,2015-01-05T01:35:00Z,27.1690,-82.9260,21.07,1111122 
COMPS,ioos:station:USF.COMPS:C10:1,2015-01-05T02:05:00Z,27.1690,-82.9260,21.03,1111122 
COMPS,ioos:station:USF.COMPS:C10:1,2015-01-05T02:35:00Z,27.1690,-82.9260,21.26,1111122 
COMPS,ioos:station:USF.COMPS:C10:1,2015-01-05T03:05:00Z,27.1690,-82.9260,21.55,1111122 
COMPS,ioos:station:USF.COMPS:C10:1,2015-01-05T03:35:00Z,27.1690,-82.9260,21.47,1111122 
COMPS,ioos:station:USF.COMPS:C10:1,2015-01-05T05:05:00Z,27.1690,-82.9260,21.29,1111122 
COMPS,ioos:station:USF.COMPS:C10:1,2015-01-05T05:35:00Z,27.1690,-82.9260,21.29,1111122 
COMPS,ioos:station:USF.COMPS:C10:1,2015-01-05T06:05:00Z,27.1690,-82.9260,21.28,1111122 
COMPS,ioos:station:USF.COMPS:C10:1,2015-01-05T06:35:00Z,27.1690,-82.9260,21.62,1111122 
COMPS,ioos:station:USF.COMPS:C10:1,2015-01-05T07:05:00Z,27.1690,-82.9260,21.5,1111122 
COMPS,ioos:station:USF.COMPS:C10:1,2015-01-05T07:35:00Z,27.1690,-82.9260,21.57,1111122 
COMPS,ioos:station:USF.COMPS:C10:1,2015-01-05T08:05:00Z,27.1690,-82.9260,21.28,1111122 
COMPS,ioos:station:USF.COMPS:C10:1,2015-01-05T08:35:00Z,27.1690,-82.9260,21.28,1111122 
COMPS,ioos:station:USF.COMPS:C10:1,2015-01-05T09:05:00Z,27.1690,-82.9260,20.89,1111122 
COMPS,ioos:station:USF.COMPS:C10:1,2015-01-05T09:35:00Z,27.1690,-82.9260,20.9,1111122 
COMPS,ioos:station:USF.COMPS:C10:1,2015-01-05T10:05:00Z,27.1690,-82.9260,21.02,1111122 
COMPS,ioos:station:USF.COMPS:C10:1,2015-01-05T10:35:00Z,27.1690,-82.9260,20.86,1111122 
COMPS,ioos:station:USF.COMPS:C10:1,2015-01-05T11:05:00Z,27.1690,-82.9260,20.88,1111122 
COMPS,ioos:station:USF.COMPS:C10:1,2015-01-05T11:35:00Z,27.1690,-82.9260,20.38,1111122 
COMPS,ioos:station:USF.COMPS:C10:1,2015-01-05T12:05:00Z,27.1690,-82.9260,19.74,1111122 
COMPS,ioos:station:USF.COMPS:C10:1,2015-01-05T12:35:00Z,27.1690,-82.9260,19.69,1111122 
COMPS,ioos:station:USF.COMPS:C10:1,2015-01-05T14:05:00Z,27.1690,-82.9260,19.72,1111122 
COMPS,ioos:station:USF.COMPS:C10:1,2015-01-05T14:35:00Z,27.1690,-82.9260,19.93,1111122 
COMPS,ioos:station:USF.COMPS:C10:1,2015-01-05T15:05:00Z,27.1690,-82.9260,19.88,1111122 
COMPS,ioos:station:USF.COMPS:C10:1,2015-01-05T15:35:00Z,27.1690,-82.9260,20.06,1111122 
COMPS,ioos:station:USF.COMPS:C10:1,2015-01-05T16:05:00Z,27.1690,-82.9260,20.07,1111122 
COMPS,ioos:station:USF.COMPS:C10:1,2015-01-05T16:35:00Z,27.1690,-82.9260,20.0,1111122 
COMPS,ioos:station:USF.COMPS:C10:1,2015-01-05T18:05:00Z,27.1690,-82.9260,20.13,1111122 
COMPS,ioos:station:USF.COMPS:C10:1,2015-01-05T18:35:00Z,27.1690,-82.9260,19.47,1111122 
COMPS,ioos:station:USF.COMPS:C10:1,2015-01-05T19:05:00Z,27.1690,-82.9260,19.21,1111122 
COMPS,ioos:station:USF.COMPS:C10:1,2015-01-05T19:35:00Z,27.1690,-82.9260,19.25,1111122 
COMPS,ioos:station:USF.COMPS:C10:1,2015-01-05T20:05:00Z,27.1690,-82.9260,19.39,1111122 
COMPS,ioos:station:USF.COMPS:C10:1,2015-01-05T20:35:00Z,27.1690,-82.9260,19.57,1111122 
COMPS,ioos:station:USF.COMPS:C10:1,2015-01-05T21:05:00Z,27.1690,-82.9260,20.02,1111122 
COMPS,ioos:station:USF.COMPS:C10:1,2015-01-05T21:35:00Z,27.1690,-82.9260,20.2,1111122 
COMPS,ioos:station:USF.COMPS:C10:1,2015-01-05T22:05:00Z,27.1690,-82.9260,19.48,1111122 
COMPS,ioos:station:USF.COMPS:C10:1,2015-01-05T22:35:00Z,27.1690,-82.9260,19.57,1111122 
COMPS,ioos:station:USF.COMPS:C10:1,2015-01-05T23:05:00Z,27.1690,-82.9260,19.44,1111122 
COMPS,ioos:station:USF.COMPS:C10:1,2015-01-05T23:35:00Z,27.1690,-82.9260,19.35,1111122 
COMPS,ioos:station:USF.COMPS:C10:1,2015-01-06T00:05:00Z,27.1690,-82.9260,19.43,1111122 
COMPS,ioos:station:USF.COMPS:C10:1,2015-01-06T00:35:00Z,27.1690,-82.9260,19.68,1111122 
COMPS,ioos:station:USF.COMPS:C10:1,2015-01-06T01:05:00Z,27.1690,-82.9260,19.78,1111122 
COMPS,ioos:station:USF.COMPS:C10:1,2015-01-06T01:35:00Z,27.1690,-82.9260,20.13,1111122 
COMPS,ioos:station:USF.COMPS:C10:1,2015-01-06T02:05:00Z,27.1690,-82.9260,20.04,1111122 
COMPS,ioos:station:USF.COMPS:C10:1,2015-01-06T02:35:00Z,27.1690,-82.9260,20.03,1111122 
COMPS,ioos:station:USF.COMPS:C10:1,2015-01-06T03:05:00Z,27.1690,-82.9260,19.65,1111122 
COMPS,ioos:station:USF.COMPS:C10:1,2015-01-06T03:35:00Z,27.1690,-82.9260,19.2,1111122 
COMPS,ioos:station:USF.COMPS:C10:1,2015-01-06T05:05:00Z,27.1690,-82.9260,18.55,1111122 
COMPS,ioos:station:USF.COMPS:C10:1,2015-01-06T05:35:00Z,27.1690,-82.9260,18.34,1111122 
COMPS,ioos:station:USF.COMPS:C10:1,2015-01-06T06:05:00Z,27.1690,-82.9260,18.25,1111122 
COMPS,ioos:station:USF.COMPS:C10:1,2015-01-06T06:35:00Z,27.1690,-82.9260,18.17,1111122 
COMPS,ioos:station:USF.COMPS:C10:1,2015-01-06T07:05:00Z,27.1690,-82.9260,17.82,1111122 
COMPS,ioos:station:USF.COMPS:C10:1,2015-01-06T07:35:00Z,27.1690,-82.9260,17.41,1111122 
COMPS,ioos:station:USF.COMPS:C10:1,2015-01-06T08:05:00Z,27.1690,-82.9260,17.41,1111122 
COMPS,ioos:station:USF.COMPS:C10:1,2015-01-06T08:35:00Z,27.1690,-82.9260,17.19,1111122 
COMPS,ioos:station:USF.COMPS:C10:1,2015-01-06T09:05:00Z,27.1690,-82.9260,17.31,1111122 
COMPS,ioos:station:USF.COMPS:C10:1,2015-01-06T09:35:00Z,27.1690,-82.9260,17.46,1111122 
COMPS,ioos:station:USF.COMPS:C10:1,2015-01-06T10:05:00Z,27.1690,-82.9260,17.49,1111122 
COMPS,ioos:station:USF.COMPS:C10:1,2015-01-06T10:35:00Z,27.1690,-82.9260,17.57,1111122 
COMPS,ioos:station:USF.COMPS:C10:1,2015-01-06T11:05:00Z,27.1690,-82.9260,17.47,1111122 
COMPS,ioos:station:USF.COMPS:C10:1,2015-01-06T11:35:00Z,27.1690,-82.9260,17.2,1111122 
COMPS,ioos:station:USF.COMPS:C10:1,2015-01-06T12:05:00Z,27.1690,-82.9260,17.55,1111122 
COMPS,ioos:station:USF.COMPS:C10:1,2015-01-06T12:35:00Z,27.1690,-82.9260,17.54,1111122 
COMPS,ioos:station:USF.COMPS:C10:1,2015-01-06T13:05:00Z,27.1690,-82.9260,17.85,1111122 
COMPS,ioos:station:USF.COMPS:C10:1,2015-01-06T13:35:00Z,27.1690,-82.9260,18.14,1111122 
COMPS,ioos:station:USF.COMPS:C10:1,2015-01-06T14:05:00Z,27.1690,-82.9260,18.46,1111122 
COMPS,ioos:station:USF.COMPS:C10:1,2015-01-06T14:35:00Z,27.1690,-82.9260,18.57,1111122 
COMPS,ioos:station:USF.COMPS:C10:1,2015-01-06T16:05:00Z,27.1690,-82.9260,18.74,1111122 
COMPS,ioos:station:USF.COMPS:C10:1,2015-01-06T16:35:00Z,27.1690,-82.9260,19.09,1111122 
COMPS,ioos:station:USF.COMPS:C10:1,2015-01-06T17:05:00Z,27.1690,-82.9260,19.69,1111122 
COMPS,ioos:station:USF.COMPS:C10:1,2015-01-06T17:35:00Z,27.1690,-82.9260,19.39,1111122 
COMPS,ioos:station:USF.COMPS:C10:1,2015-01-06T18:05:00Z,27.1690,-82.9260,19.64,1111122 
COMPS,ioos:station:USF.COMPS:C10:1,2015-01-06T18:35:00Z,27.1690,-82.9260,19.65,1111122 
COMPS,ioos:station:USF.COMPS:C10:1,2015-01-06T19:05:00Z,27.1690,-82.9260,19.5,1111122 
COMPS,ioos:station:USF.COMPS:C10:1,2015-01-06T19:35:00Z,27.1690,-82.9260,19.56,1111122 
COMPS,ioos:station:USF.COMPS:C10:1,2015-01-06T22:05:00Z,27.1690,-82.9260,18.97,1111122 
COMPS,ioos:station:USF.COMPS:C10:1,2015-01-06T22:35:00Z,27.1690,-82.9260,19.01,1111122 
COMPS,ioos:station:USF.COMPS:C10:1,2015-01-06T23:05:00Z,27.1690,-82.9260,18.83,1111122 
COMPS,ioos:station:USF.COMPS:C10:1,2015-01-06T23:35:00Z,27.1690,-82.9260,18.63,1111122 
COMPS,ioos:station:USF.COMPS:C10:1,2015-01-07T00:05:00Z,27.1690,-82.9260,18.44,1111122 
COMPS,ioos:station:USF.COMPS:C10:1,2015-01-07T00:35:00Z,27.1690,-82.9260,18.49,1111122 
COMPS,ioos:station:USF.COMPS:C10:1,2015-01-07T01:05:00Z,27.1690,-82.9260,18.43,1111122 
COMPS,ioos:station:USF.COMPS:C10:1,2015-01-07T01:35:00Z,27.1690,-82.9260,18.37,1111122 
COMPS,ioos:station:USF.COMPS:C10:1,2015-01-07T02:05:00Z,27.1690,-82.9260,18.26,1111122 
COMPS,ioos:station:USF.COMPS:C10:1,2015-01-07T02:35:00Z,27.1690,-82.9260,18.03,1111122 
COMPS,ioos:station:USF.COMPS:C10:1,2015-01-07T03:05:00Z,27.1690,-82.9260,17.95,1111122 
COMPS,ioos:station:USF.COMPS:C10:1,2015-01-07T03:35:00Z,27.1690,-82.9260,18.18,1111122 
COMPS,ioos:station:USF.COMPS:C10:1,2015-01-07T04:05:00Z,27.1690,-82.9260,18.22,1111122 
COMPS,ioos:station:USF.COMPS:C10:1,2015-01-07T04:35:00Z,27.1690,-82.9260,18.12,1111122 